Home   Weather   Boston   Past weeks

Flag for USA Past Weather in Boston, Massachusetts, USA — Yesterday and Last 2 Weeks

Now
71 °F

Passing clouds.


Feels Like: 77 °F
Forecast: 47 / 59 °F
Wind: 21 mph from West

Location: Logan International Airport

Current Time: Apr 29, 2017 at 9:44:38 pm

Latest Report: Apr 29, 2017 at 8:54 pm


Visibility: 10 mi

Pressure: 29.94 "Hg

Humidity: 44%

Dew Point: 48 °F

Location of BostonLocation

Past Weather in Boston — Graph

°F

Boston Temperature Yesterday

Maximum temperature yesterday: 81 °F (at 4:54 pm)
Minimum temperature yesterday: 52 °F (at 5:54 am)
Average temperature yesterday: 65 °F

High & Low Weather Summary for the Past Weeks

 TemperatureHumidityPressure
High85 °F (Apr 16, 12:54 pm)100% (Apr 20, 11:34 pm)30.60 "Hg (Apr 20, 11:34 pm)
Low39 °F (Apr 19, 4:54 am)23% (Apr 15, 11:54 am)29.62 "Hg (Apr 16, 6:54 pm)
Average53 °F78%30.07 "Hg
* Reported Apr 14 7:54 pm — Apr 29 7:54 pm, Boston, Weather by CustomWeather, © 2017

Note: Actual official high and low records may vary slightly from our data, if they occured in-between our weather recording intervals... More about our weather records

Advertising

Boston Weather History for the Previous 24 Hours

Scroll right to see more
 ConditionsComfort  
Time TempWeatherWind HumidityBarometerVisibility
7:54 pm
Sat, Apr 29
75 °FPartly cloudy.15 mph42%29.89 "Hg10 mi
6:54 pm76 °FMostly cloudy.17 mph43%29.88 "Hg10 mi
5:54 pm79 °FMore clouds than sun.24 mph42%29.88 "Hg10 mi
4:54 pm83 °FMore clouds than sun.17 mph40%29.83 "Hg10 mi
3:54 pm83 °FCloudy.21 mph41%29.80 "Hg10 mi
2:54 pm83 °FCloudy.20 mph43%29.82 "Hg10 mi
1:54 pm81 °FCloudy.18 mph44%29.82 "Hg10 mi
12:54 pm82 °FPassing clouds.16 mph41%29.84 "Hg10 mi
11:54 am80 °FSunny.17 mph42%29.88 "Hg10 mi
10:54 am77 °FSunny.13 mph44%29.91 "Hg10 mi
9:54 am71 °FOvercast.8 mph55%29.94 "Hg10 mi
8:54 am66 °FOvercast.6 mph70%29.96 "Hg10 mi
7:54 am68 °FPartly sunny.5 mph61%29.96 "Hg10 mi
6:54 am63 °FPartly sunny.7 mph75%29.96 "Hg10 mi
5:54 am63 °FPartly sunny.6 mph75%29.98 "Hg10 mi
4:54 am65 °FClear.8 mph73%29.99 "Hg10 mi
3:54 am61 °FClear.6 mph90%29.96 "Hg10 mi
2:54 am63 °FClear.9 mph84%29.98 "Hg10 mi
1:54 am65 °FClear.7 mph76%30.00 "Hg10 mi
12:54 am68 °FClear.10 mph70%30.00 "Hg10 mi
11:54 pm
Fri, Apr 28
69 °FPassing clouds.9 mph68%29.99 "Hg10 mi
10:54 pm71 °FPassing clouds.6 mph63%30.00 "Hg10 mi
9:54 pm72 °FPassing clouds.10 mph61%29.98 "Hg10 mi
Weather by CustomWeather, © 2017

See weather overviewHow to use our weather pages